TimeCST,TemperatureF,Dew PointF,Humidity,Sea Level PressureIn,VisibilityMPH,Wind Direction,Wind SpeedMPH,Gust SpeedMPH,PrecipitationIn,Events,Conditions,WindDirDegrees,DateUTC
12:15 AM,24.8,12.2,59,30.28,10.0,NW,10.4,17.3,N/A,,Clear,310,2012-12-05 06:15:00
12:35 AM,24.8,12.2,59,30.28,10.0,NW,15.0,-,N/A,,Clear,310,2012-12-05 06:35:00
12:55 AM,26.6,12.2,55,30.29,10.0,NW,11.5,19.6,N/A,,Clear,310,2012-12-05 06:55:00
1:15 AM,26.6,12.2,55,30.30,10.0,NW,13.8,19.6,N/A,,Clear,310,2012-12-05 07:15:00
1:55 AM,26.6,12.2,55,30.33,10.0,WNW,16.1,21.9,N/A,,Clear,300,2012-12-05 07:55:00
2:15 AM,24.8,12.2,59,30.34,10.0,WNW,15.0,-,N/A,,Clear,300,2012-12-05 08:15:00
2:35 AM,24.8,14.0,64,30.34,10.0,NW,13.8,20.7,N/A,,Clear,310,2012-12-05 08:35:00
2:55 AM,24.8,15.8,69,30.34,10.0,WNW,12.7,17.3,N/A,,Clear,300,2012-12-05 08:55:00
3:15 AM,24.8,14.0,64,30.34,10.0,NW,12.7,18.4,N/A,,Clear,310,2012-12-05 09:15:00
3:35 AM,24.8,15.8,69,30.34,10.0,NW,11.5,-,N/A,,Clear,310,2012-12-05 09:35:00
3:55 AM,24.8,15.8,69,30.35,10.0,NW,11.5,-,N/A,,Clear,310,2012-12-05 09:55:00
4:15 AM,24.8,15.8,69,30.35,10.0,NW,12.7,-,N/A,,Clear,310,2012-12-05 10:15:00
4:35 AM,24.8,15.8,69,30.36,10.0,NW,10.4,-,N/A,,Clear,320,2012-12-05 10:35:00
4:55 AM,24.8,15.8,69,30.38,10.0,NW,10.4,-,N/A,,Clear,310,2012-12-05 10:55:00
5:15 AM,24.8,15.8,69,30.39,10.0,NW,9.2,-,N/A,,Clear,310,2012-12-05 11:15:00
5:35 AM,24.8,15.8,69,30.39,10.0,NW,11.5,-,N/A,,Clear,310,2012-12-05 11:35:00
5:55 AM,24.8,15.8,69,30.40,10.0,NW,11.5,-,N/A,,Clear,310,2012-12-05 11:55:00
6:15 AM,24.8,15.8,69,30.40,10.0,NNW,10.4,-,N/A,,Clear,330,2012-12-05 12:15:00
6:35 AM,24.8,15.8,69,30.41,10.0,NNW,9.2,-,N/A,,Clear,330,2012-12-05 12:35:00
6:55 AM,24.8,15.8,69,30.42,10.0,NNW,9.2,-,N/A,,Clear,340,2012-12-05 12:55:00
8:35 AM,28.4,17.6,64,30.43,10.0,North,9.2,-,N/A,,Scattered Clouds,360,2012-12-05 14:35:00
8:55 AM,30.2,17.6,60,30.42,10.0,North,12.7,18.4,N/A,,Mostly Cloudy,360,2012-12-05 14:55:00
9:15 AM,28.4,17.6,64,30.42,10.0,NNE,9.2,-,N/A,,Mostly Cloudy,30,2012-12-05 15:15:00
9:35 AM,30.2,17.6,60,30.42,10.0,NE,10.4,-,N/A,,Mostly Cloudy,40,2012-12-05 15:35:00
9:55 AM,30.2,17.6,60,30.42,10.0,NE,6.9,-,N/A,,Mostly Cloudy,50,2012-12-05 15:55:00
10:15 AM,30.2,17.6,60,30.42,10.0,NE,9.2,-,N/A,,Partly Cloudy,50,2012-12-05 16:15:00
10:35 AM,30.2,17.6,60,30.43,10.0,Calm,Calm,-,N/A,,Clear,0,2012-12-05 16:35:00
10:55 AM,30.2,17.6,60,30.42,10.0,NNE,4.6,-,N/A,,Scattered Clouds,20,2012-12-05 16:55:00
11:15 AM,30.2,19.4,64,30.42,10.0,East,5.8,-,N/A,,Mostly Cloudy,80,2012-12-05 17:15:00
11:35 AM,30.2,17.6,60,30.42,10.0,ENE,4.6,-,N/A,,Scattered Clouds,70,2012-12-05 17:35:00
11:55 AM,32.0,17.6,55,30.42,10.0,NNE,3.5,-,N/A,,Mostly Cloudy,20,2012-12-05 17:55:00
12:15 PM,32.0,19.4,60,30.42,10.0,East,5.8,-,N/A,,Overcast,90,2012-12-05 18:15:00
12:35 PM,30.2,19.4,64,30.42,10.0,ESE,3.5,-,N/A,,Overcast,120,2012-12-05 18:35:00
12:55 PM,30.2,19.4,64,30.40,10.0,ESE,5.8,-,N/A,,Mostly Cloudy,110,2012-12-05 18:55:00
1:15 PM,30.2,19.4,64,30.39,10.0,ESE,4.6,-,N/A,,Mostly Cloudy,110,2012-12-05 19:15:00
1:35 PM,30.2,19.4,64,30.37,10.0,SSE,4.6,-,N/A,,Mostly Cloudy,150,2012-12-05 19:35:00
1:55 PM,32.0,19.4,60,30.37,10.0,East,4.6,-,N/A,,Mostly Cloudy,100,2012-12-05 19:55:00
2:15 PM,30.2,19.4,64,30.37,10.0,SSE,6.9,-,N/A,,Mostly Cloudy,160,2012-12-05 20:15:00
2:35 PM,30.2,19.4,64,30.36,10.0,SSE,5.8,-,N/A,,Partly Cloudy,160,2012-12-05 20:35:00
2:55 PM,30.2,19.4,64,30.35,10.0,South,5.8,-,N/A,,Clear,170,2012-12-05 20:55:00
3:15 PM,30.2,19.4,64,30.35,10.0,SSE,5.8,-,N/A,,Clear,160,2012-12-05 21:15:00
3:35 PM,28.4,19.4,69,30.34,10.0,Calm,Calm,-,N/A,,Scattered Clouds,0,2012-12-05 21:35:00
3:55 PM,30.2,19.4,64,30.34,10.0,Calm,Calm,-,N/A,,Overcast,0,2012-12-05 21:55:00
4:15 PM,30.2,21.2,69,30.34,10.0,Calm,Calm,-,N/A,,Overcast,0,2012-12-05 22:15:00
4:35 PM,30.2,19.4,64,30.33,10.0,South,3.5,-,N/A,,Overcast,180,2012-12-05 22:35:00
4:55 PM,30.2,21.2,69,30.33,10.0,South,4.6,-,N/A,,Overcast,190,2012-12-05 22:55:00
5:15 PM,30.2,21.2,69,30.32,10.0,SSE,3.5,-,N/A,,Overcast,160,2012-12-05 23:15:00
5:35 PM,30.2,21.2,69,30.32,10.0,Calm,Calm,-,N/A,,Overcast,0,2012-12-05 23:35:00
5:55 PM,30.2,21.2,69,30.31,10.0,SE,5.8,-,N/A,,Overcast,140,2012-12-05 23:55:00
6:15 PM,30.2,21.2,69,30.31,10.0,SE,4.6,-,N/A,,Overcast,140,2012-12-06 00:15:00
6:35 PM,30.2,23.0,75,30.31,10.0,SSE,4.6,-,N/A,,Overcast,160,2012-12-06 00:35:00
6:55 PM,30.2,21.2,69,30.30,10.0,SSE,5.8,-,N/A,,Overcast,160,2012-12-06 00:55:00
7:15 PM,30.2,23.0,75,30.29,10.0,SSE,5.8,-,N/A,,Overcast,150,2012-12-06 01:15:00
7:35 PM,30.2,23.0,75,30.28,10.0,SSE,8.1,-,N/A,,Overcast,150,2012-12-06 01:35:00
7:55 PM,32.0,24.8,75,30.27,10.0,SSE,9.2,-,N/A,,Overcast,160,2012-12-06 01:55:00
8:15 PM,32.0,24.8,75,30.25,10.0,SSE,8.1,-,N/A,,Overcast,160,2012-12-06 02:15:00
8:55 PM,32.0,24.8,75,30.22,10.0,SSE,10.4,-,N/A,,Mostly Cloudy,160,2012-12-06 02:55:00
9:15 PM,33.8,24.8,70,30.22,10.0,South,9.2,-,N/A,,Mostly Cloudy,170,2012-12-06 03:15:00
9:35 PM,33.8,26.6,75,30.22,10.0,South,9.2,-,N/A,,Overcast,180,2012-12-06 03:35:00
9:55 PM,33.8,26.6,75,30.22,10.0,South,10.4,-,N/A,,Overcast,180,2012-12-06 03:55:00
10:15 PM,33.8,26.6,75,30.22,10.0,SSW,6.9,-,N/A,,Overcast,200,2012-12-06 04:15:00
10:35 PM,33.8,26.6,75,30.21,10.0,SSW,6.9,-,N/A,,Overcast,200,2012-12-06 04:35:00
10:55 PM,33.8,26.6,75,30.21,10.0,SSW,6.9,-,N/A,,Overcast,200,2012-12-06 04:55:00
11:15 PM,33.8,26.6,75,30.20,10.0,South,6.9,-,N/A,,Mostly Cloudy,190,2012-12-06 05:15:00
11:35 PM,33.8,26.6,75,30.20,10.0,SSW,8.1,-,N/A,,Partly Cloudy,200,2012-12-06 05:35:00
11:55 PM,33.8,26.6,75,30.19,10.0,South,10.4,-,N/A,,Partly Cloudy,180,2012-12-06 05:55:00